User: anonymous   Login
Location: Prague
(50.0830°N, 14.4670°E)
Time: 04:43:28
(UTC+01:00)
Language:

Oscar 19 - Orbit

View from above orbital plane
View from above orbital plane
View from above satellite
View from above satellite

Ground track
Ground track

The orbit data is extracted from the following two-line orbital elements,

1 20442U 90005G   21332.64242241  .00000050  00000-0  34874-4 0  9997
2 20442  98.7652 289.7768 0012514  42.4781 317.7368 14.33008131664349
Epoch (UTC): 28 November 2021 15:25:05
Eccentricity: 0.0012514
inclination: 98.7652°
perigee height: 773 km
apogee height: 790 km
right ascension of ascending node: 289.7768°
argument of perigee: 42.4781°
revolutions per day: 14.33008131
mean anomaly at epoch: 317.7368°
orbit number at epoch: 66434

The dashed part of the orbit path shows where the satellite is in the earth's shadow,  

DLR